Home > Weather > Saguenay > Past weeks

Flag for Canada Weather for the Past 2 Weeks in Saguenay, Quebec, Canada

Now
-7 °F

Frigid.


Feels Like: -26 °F
Forecast: -13 / 0 °F
Wind: 12 mph from West

Location: Jonquiere Airport

Current Time: Feb 12, 2016 at 3:10:32 AM

Latest Report: Feb 12, 2016 at 2:00 AM


Visibility: N/A

Pressure: 30.02 "Hg

Humidity: 78%

Dew point: -12 °F

Location of SaguenayLocation

Historic Weather in Saguenay — Graph

°F

Saguenay Temperature Yesterday

Maximum temperature yesterday: 9 °F (at 12:00 AM)
Minimum temperature yesterday: -3 °F (at 11:00 PM)
Average temperature yesterday: 0 °F

High & Low Weather Summary for the Past Weeks

 TemperatureHumidityPressure
High38 °F (Feb 4, 8:00 AM)100% (Jan 31, 11:00 PM)30.49 "Hg (Jan 31, 11:00 PM)
Low-13 °F (Feb 8, 7:00 AM)54% (Feb 7, 3:00 PM)29.27 "Hg (Feb 1, 6:00 AM)
Average14 °F85%29.92 "Hg
* Reported Jan 28 2:00 AM — Feb 12 2:00 AM, Saguenay, Weather by CustomWeather, © 2016

Note: Actual official high and low records may vary slightly from our data, if they occured in-between our weather recording intervals... More about our weather records

Advertising

Saguenay Weather History for the Previous 24 Hours

 ConditionsComfort  
Time TempWeatherWind HumidityBarometerVisibility
2:00 AM
Fri, Feb 12
-7 °FFrigid.12 mph78%30.02 "HgN/A
1:00 AM-6 °FFrigid.16 mph78%30.01 "HgN/A
12:00 AM-4 °FFrigid.14 mph81%30.00 "HgN/A
11:00 PM
Thu, Feb 11
-3 °FFrigid.14 mph80%29.98 "HgN/A
10:00 PM-3 °FFrigid.14 mph82%29.96 "HgN/A
9:00 PM-3 °FFrigid.17 mph82%29.94 "HgN/A
8:00 PM-2 °FFrigid.15 mph83%29.92 "HgN/A
7:00 PM-2 °FFrigid.13 mph82%29.90 "HgN/A
6:00 PM-2 °FFrigid.10 mph82%29.89 "HgN/A
4:00 PM-1 °FFrigid.15 mph77%29.84 "HgN/A
3:00 PM0 °FFrigid.12 mph71%29.82 "HgN/A
2:00 PM-2 °FFrigid.13 mph73%29.81 "HgN/A
1:00 PM-1 °FFrigid.13 mph69%29.80 "HgN/A
12:00 PM-1 °FFrigid.13 mph69%29.79 "HgN/A
11:00 AM-2 °FFrigid.12 mph71%29.80 "HgN/A
10:00 AM-2 °FFrigid.12 mph76%29.79 "HgN/A
9:00 AM-3 °FFrigid.14 mph77%29.80 "HgN/A
8:00 AM-3 °FFrigid.10 mph80%29.79 "HgN/A
7:00 AM-2 °FFrigid.12 mph80%29.77 "HgN/A
6:00 AM0 °FFrigid.13 mph81%29.75 "HgN/A
5:00 AM2 °FFrigid.13 mph81%29.73 "HgN/A
4:00 AM4 °FFrigid.12 mph81%29.71 "HgN/A
3:00 AM5 °FFrigid.13 mph81%29.70 "HgN/A
Weather by CustomWeather, © 2016

See weather overviewHow to use our weather pages